Location: La Mure
(43.9813°N, 6.5243°E)
Time: 10:26:28
(UTC+00:00)

Daily predictions for brighter satellites

Satellite Brightness Start Highest point End
(mag) Time Altitude Azimuth Time Altitude Azimuth Time Altitude Azimuth
Cosmos 1802 Rocket 4.1 19:16:43 10° SSE 19:22:41 54° E 19:28:39 10° NNE
Cosmos 292 Rocket 4.4 19:19:10 10° NNW 19:23:51 58° WSW 19:28:28 10° S
Cosmos 44 Rocket 4.2 19:18:57 10° SW 19:23:57 59° NW 19:29:04 10° NNE
Helios 1A Rocket 2.8 19:22:55 10° NNE 19:25:52 36° E 19:28:47 10° S
PAYLOAD B 4.4 19:21:57 10° SSE 19:27:21 59° ENE 19:32:48 10° N
Cosmos 1697 Rocket 3.7 19:23:54 10° NW 19:29:14 46° WSW 19:34:32 10° S
NOSS 3-3 (C) 4.0 19:24:44 10° S 19:29:26 40° ESE 19:34:53 10° NE
Meteor 1-31 Rocket 2.5 19:28:50 10° SSE 19:32:18 87° W 19:35:46 10° NNW
Cosmos 1455 Rocket 3.1 19:30:23 10° S 19:34:42 61° E 19:39:03 10° NNE
USA 215 4.3 19:29:18 10° SSE 19:35:16 38° SW 19:41:16 10° WNW
USA 306 4.4 19:32:15 10° W 19:35:22 27° NNW 19:37:46 10° NNE
DELTA 2 R/B (1) 3.8 19:31:46 10° WSW 19:37:10 52° S 19:42:34 10° E
Cosmos 1892 Rocket 3.6 19:33:25 10° N 19:37:41 59° E 19:41:55 10° SSE
Okean O Rocket 2.7 19:34:12 10° SE 19:37:49 27° ENE 19:41:27 10° N
Cosmos 2100 Rocket 4.3 19:32:47 10° SSW 19:39:01 78° W 19:45:22 10° N
Cosmos 1850 Rocket 4.3 19:33:54 10° NNW 19:39:03 70° WSW 19:44:11 10° S
Meteor 1-27 4.2 19:34:56 10° S 19:40:30 66° E 19:46:03 10° NNE
Cosmos 2228 3.3 19:37:06 10° SSE 19:40:58 42° E 19:44:51 10° NNE
SPOT 5 3.7 19:37:29 10° S 19:41:36 44° W 19:45:50 10° NNW
USA 186 3.4 19:40:57 11° ESE 19:42:29 15° ENE 19:44:12 10° NNE
IRAS Rocket 4.3 19:37:11 10° SSE 19:42:39 84° WSW 19:48:11 10° NNW
SL-16 R/B 3.5 19:39:36 10° N 19:44:22 27° NE 19:49:05 10° ESE
SL-24 R/B 4.3 19:40:22 10° NNE 19:44:42 84° WNW 19:49:34 10° SSW
Okean 1 Rocket 4.1 19:42:52 10° SSW 19:47:07 49° WNW 19:51:26 10° N
CBERS 1 LM4 rocket 4.5 19:42:39 10° SSE 19:47:36 76° ENE 19:52:46 10° N
Cosmos 2233 Rocket 4.1 19:43:33 10° SSE 19:49:34 55° E 19:55:33 10° NNE
Cosmos 2084 Rocket 3.4 19:47:51 10° NW 19:52:04 76° NE 19:55:38 14° SE
COSMOS 2406 3.6 19:51:18 10° S 19:56:42 44° ESE 20:02:06 10° NE
Cosmos 1782 2.4 19:54:52 10° S 19:58:22 90° ESE 20:01:55 10° N
Okean-O 3.1 19:55:01 14° SE 19:58:32 43° ENE 20:02:40 10° N
SKYMED 3 4.2 19:54:51 10° NNE 19:58:48 76° ESE 20:02:46 10° S
CZ-4 R/B 2.3 19:55:30 10° S 19:58:55 40° W 20:02:22 10° NNW
MetOp-B 4.2 19:53:43 10° SSE 19:59:05 88° W 20:04:28 10° NNW
Cosmos 1980 Rocket 2.7 19:54:38 10° NNW 20:00:14 59° WSW 20:05:46 10° S
Ariane Rocket 4.5 19:58:02 12° ESE 20:01:21 22° ENE 20:05:10 10° NNE
Spot 2 Rocket 3.6 20:02:06 13° SSE 20:06:26 61° ENE 20:11:24 10° N
Cosmos 1758 Rocket 4.3 20:03:51 10° N 20:07:57 36° ENE 20:10:37 19° SE
Cosmos 1725 Rocket 4.2 20:01:59 10° SSW 20:08:14 75° W 20:14:29 10° N
Cosmos 2333 Rocket 3.1 20:07:05 10° NNW 20:12:22 37° NE 20:16:16 17° ESE
ERS-1 Rocket 3.6 20:07:35 10° S 20:12:29 56° W 20:17:26 10° NNW
ATLAS 3B R/B 4.2 20:06:22 10° NW 20:13:04 34° WSW 20:19:23 10° S
USA 305 4.1 20:16:14 10° WNW 20:19:39 26° SW 20:21:49 15° S
Tsikada Rocket 3.9 20:13:43 10° N 20:19:54 87° E 20:25:37 12° S
Cosmos 2016 Rocket 4.5 20:16:41 10° SSW 20:22:52 63° W 20:29:02 10° N
Cosmos 1461 2.4 20:21:09 10° SSW 20:24:49 68° ESE 20:28:29 10° NE
CZ-4B R/B 3.8 20:20:00 10° S 20:25:32 57° W 20:31:05 10° NNW
Cosmos 2360 Rocket 3.4 20:21:16 10° N 20:26:11 29° NE 20:29:39 16° ESE
CZ-4B R/B 4.1 20:25:36 21° ESE 20:28:07 37° ENE 20:32:31 10° N
Cosmos 1992 Rocket 4.1 20:24:07 10° SSW 20:29:19 79° WNW 20:34:33 10° NNE
Cosmos 1602 Rocket 4.3 20:28:08 10° N 20:32:09 36° ENE 20:33:49 26° ESE
YAOGAN 11 4.1 20:31:05 10° NNE 20:35:33 86° WNW 20:40:01 10° SSW
ISS -1.3 20:34:03 10° WNW 20:36:44 22° N 20:39:27 10° NE
Cosmos 220 Rocket 4.0 20:36:01 26° SSE 20:37:58 49° ESE 20:41:56 10° NNE
Cosmos 1437 Rocket 2.4 20:36:40 30° S 20:38:15 64° E 20:41:48 10° NNE
USA 290 4.3 20:39:46 15° ENE 20:39:46 15° ENE 20:40:40 10° NE
Cosmos 2219 Rocket 3.7 20:34:57 10° N 20:39:30 24° NE 20:42:48 15° E
Meteor 1-25 Rocket 4.5 20:35:21 10° N 20:40:53 53° ENE 20:43:46 27° SE
SL-08 R/B 4.3 20:41:10 10° N 20:45:46 47° WNW 20:50:16 10° SW
Cosmos 2098 Rocket 3.6 20:44:22 30° SE 20:46:06 42° E 20:50:11 10° NNE
DEBRIS 4.4 20:43:34 10° WNW 20:46:42 49° N 20:55:50 10° ENE
Cosmos 1626 Rocket 3.6 20:44:12 10° NNW 20:48:34 75° W 20:51:00 26° S
Terra 3.6 20:46:21 10° SSW 20:50:16 26° W 20:54:13 10° NW
Cosmos 1513 Rocket 4.4 20:51:10 19° S 20:55:43 76° E 21:01:51 10° N
IRS-1C Rocket 4.2 20:53:40 31° SE 20:56:10 66° ENE 21:01:25 10° N
Cosmos 2151 2.8 20:52:26 10° N 20:56:34 84° W 20:58:09 36° S
Cosmos 1464 Rocket 4.2 20:53:50 28° SSE 20:56:55 53° E 21:02:53 10° NNE
Cosmos 2322 Rocket 2.6 20:52:42 10° NNW 20:58:14 51° ENE 21:00:46 30° ESE
Cosmos 1486 Rocket 4.3 20:53:15 10° NNW 20:58:27 56° ENE 21:00:35 33° SE
Cosmos 2082 Rocket 4.1 20:54:53 10° WSW 20:59:57 32° NW 21:05:03 10° N
Cosmos 1606 Rocket 3.8 21:03:17 42° SE 21:04:03 47° E 21:08:12 10° NNE
Meteor 2-10 4.4 21:01:23 10° N 21:07:03 57° ENE 21:09:14 36° SE
CZ-4B R/B 2.6 21:09:42 53° SSW 21:10:15 65° W 21:13:41 10° NNW
USA 186 3.6 21:11:04 17° WSW 21:11:41 18° W 21:13:43 10° NW
Cosmos 1726 Rocket 3.9 21:12:34 40° E 21:12:34 40° E 21:16:21 10° NNE
Okean O Rocket 3.2 21:11:15 16° SSW 21:13:55 29° W 21:17:40 10° NW
Cosmos 540 Rocket 3.8 21:13:17 39° SE 21:13:59 42° ESE 21:18:49 10° NE
Cosmos 1072 Rocket 4.4 21:11:32 28° S 21:15:05 79° E 21:21:26 10° N
Cosmos 1805 2.8 21:19:15 10° N 21:22:21 76° NW 21:22:21 76° NW
DELTA 2 R/B (1) 3.8 21:17:49 10° W 21:23:10 50° S 21:24:09 45° SSE
Cosmos 2278 3.7 21:18:35 10° NNW 21:24:17 75° WSW 21:26:23 40° S
CZ-2C R/B 3.0 21:27:13 44° NNW 21:27:13 44° NNW 21:29:16 10° NNW
Meteor 1-5 Rocket 4.2 21:21:19 10° N 21:27:07 90° ENE 21:29:21 40° S
SL-16 R/B 2.6 21:23:14 10° NW 21:28:44 53° WSW 21:30:55 34° SSW
Okean 1-7 Rocket 3.5 21:25:14 10° N 21:29:44 89° WSW 21:30:35 58° S
Cosmos-2242 3.7 21:34:03 36° ENE 21:34:03 36° ENE 21:37:21 10° NNE
Geosat 4.1 21:30:00 10° NE 21:34:52 50° ESE 21:35:08 49° SE
NOSS 3-4 (A) 3.8 21:28:20 10° NW 21:35:13 88° SW 21:38:39 38° SSE
Cosmos 2034 Rocket 4.0 21:32:54 40° SSE 21:35:16 70° E 21:41:35 10° NNE
NOSS 3-4 (C) 3.8 21:28:58 10° NW 21:35:53 89° SW 21:39:18 38° SE
Ariane Rocket 3.5 21:38:06 35° SSW 21:39:51 51° W 21:44:48 10° NNW
USA 234 4.4 21:43:29 10° ENE 21:47:10 24° E 21:47:10 24° E
Nadezhda 4 Rocket 4.2 21:47:55 10° NNW 21:53:58 64° W 21:56:13 39° SSW
Helios 1B rocket 3.5 21:55:11 30° NE 21:55:11 30° NE 21:57:37 10° N
Cosmos 1763 Rocket 3.6 21:53:12 41° SW 21:55:03 76° WNW 22:00:22 10° NNE
Okean 1 3.9 21:56:18 46° WNW 21:56:18 46° WNW 21:59:40 10° N
Cosmos 2333 Rocket 3.2 21:51:27 10° NW 21:56:37 36° WSW 21:58:17 30° SW
Cosmos 2221 4.4 21:59:07 19° ENE 21:59:07 19° ENE 22:01:10 10° NE
Cosmos 1707 4.4 21:59:51 20° NNE 21:59:51 20° NNE 22:00:52 10° NNE
Cosmos 1825 Rocket 4.0 21:54:38 10° NNW 21:58:52 51° W 21:59:17 49° WSW
Cosmos 1634 Rocket 4.1 21:57:45 50° SE 21:58:58 59° E 22:05:03 10° NNE
Cosmos 1536 3.7 21:56:27 10° N 21:59:12 38° NE 21:59:12 38° NE
Cosmos 2297 Rocket 4.1 22:01:44 15° E 22:01:44 15° E 22:03:57 10° ENE
Cosmos 1833 4.3 21:57:58 33° SW 22:00:35 73° WNW 22:06:15 10° NNE
Cosmos 1953 Rocket 3.5 22:00:39 10° N 22:04:56 78° W 22:04:56 78° W
Cosmos 44 3.8 22:00:36 10° NNW 22:05:56 57° NE 22:06:56 49° E
Cosmos 990 Rocket 3.8 22:01:08 10° NNW 22:06:19 81° WSW 22:06:54 70° S
Meteor 2-6 Rocket 4.5 22:08:15 52° ESE 22:08:58 55° E 22:14:46 10° NNE
Cosmos 2360 Rocket 2.7 22:04:57 10° NW 22:10:23 48° WSW 22:11:23 43° SW
USA 290 4.5 22:12:10 21° WNW 22:12:20 21° WNW 22:14:48 10° N
Cosmos 2322 4.4 22:06:58 10° NNW 22:12:24 43° ENE 22:13:46 37° E
Cosmos 2058 Rocket 3.0 22:14:25 78° N 22:14:25 78° N 22:18:29 10° N
ISS -1.8 22:11:20 10° NW 22:14:15 27° NNE 22:14:19 27° NNE
Cosmos 2026 Rocket 4.0 22:10:16 10° N 22:16:39 76° W 22:18:17 52° SSW
Helios 1A 3.4 22:19:02 10° N 22:22:30 55° NW 22:22:30 55° NW
Cosmos 2219 Rocket 2.3 22:18:16 10° NNW 22:23:51 61° WSW 22:24:29 57° SW
Cosmos 1975 4.3 22:23:08 10° N 22:25:24 28° NE 22:25:24 28° NE
Cosmos 841 Rocket 3.9 22:28:15 49° E 22:28:15 49° E 22:32:49 10° NNE
ARIANE 5 R/B 3.1 22:32:16 51° NE 22:32:16 51° NE 22:36:18 10° N
RESURS DK-1 3.4 22:29:23 10° NNW 22:32:35 39° NNE 22:32:35 39° NNE
ALOS 2 3.4 22:33:58 43° ENE 22:33:58 43° ENE 22:37:50 10° N
Cosmos 2322 Rocket 3.6 22:37:24 10° NW 22:41:54 25° WSW 22:42:34 24° WSW
Cosmos 1271 Rocket 4.3 22:46:13 29° N 22:46:13 29° N 22:48:02 10° N
Cosmos 372 Rocket 3.9 22:42:55 10° NNW 22:47:53 78° W 22:47:53 78° W
Lacrosse 4 Rocket 3.9 22:51:57 12° ENE 22:51:57 12° ENE 22:52:27 10° ENE
Spot 4 3.8 22:51:57 78° NNE 22:51:57 78° NNE 22:56:29 10° NNW
Meteor 2-9 Rocket 4.0 22:50:17 10° N 22:55:44 88° E 22:55:55 84° SSE
PSLV R/B 4.2 22:52:39 10° NNE 22:55:59 49° NE 22:55:59 49° NE
CZ-2C R/B 3.7 22:58:57 32° E 22:59:47 34° ENE 23:04:26 10° N
Cosmos 2237 Rocket 3.1 22:55:31 10° NNW 23:00:50 40° ENE 23:02:17 34° E
Aureole 1 Rocket 4.4 22:56:08 10° NNW 23:01:57 51° WSW 23:02:46 48° SW
Cosmos 1980 4.4 22:59:36 10° NNW 23:05:03 46° ENE 23:06:13 40° E
Cosmos 2142 Rocket 4.4 23:05:17 68° SSW 23:06:10 84° W 23:12:26 10° N
ARGOS Delta rocket 3.9 23:01:13 10° N 23:06:26 86° WNW 23:06:31 85° WSW
Cosmos 2180 Rocket 4.4 23:06:37 69° SSW 23:07:28 86° W 23:13:49 10° N
Cosmos 1937 Rocket 3.4 23:04:29 10° NNW 23:09:26 82° N 23:09:26 82° N
Cosmos 2227 Rocket 3.6 23:11:04 25° E 23:11:04 25° E 23:14:58 10° NE
Meteor 2-4 Rocket 4.4 23:11:49 40° E 23:11:49 40° E 23:16:48 10° NNE
COSMOS 2428 2.6 23:06:24 10° NNW 23:12:06 77° WSW 23:12:10 77° WSW
NOSS 0 Rocket 3.8 23:08:32 10° NNW 23:14:44 86° ENE 23:15:26 72° SE
Meteor 1-11 Rocket 3.5 23:09:53 10° N 23:15:33 84° E 23:15:45 82° SE
Meteor 1-10 Rocket 4.2 23:17:23 76° SSW 23:17:52 85° WNW 23:23:51 10° N
MetOp-A 4.1 23:18:10 64° ENE 23:18:10 64° ENE 23:22:40 10° N
Cosmos 2263 Rocket 4.0 23:20:54 18° E 23:20:54 18° E 23:24:10 10° ENE
Cosmos 1812 Rocket 4.2 23:25:18 51° NW 23:25:18 51° NW 23:28:59 10° N
Cosmos 1238 Rocket 4.1 23:25:54 37° NE 23:25:54 37° NE 23:28:48 10° NNE
SeaSat 1 4.0 23:28:37 24° E 23:30:19 30° NE 23:34:35 10° N
USA 234 3.2 23:25:49 10° NE 23:32:24 87° NW 23:34:29 48° SW
Meteor 1-27 Rocket 3.6 23:32:34 79° SSE 23:32:53 83° E 23:38:40 10° NNE
Cosmos 2221 3.9 23:35:23 30° WNW 23:35:23 30° WNW 23:38:35 10° N
CZ-2C R/B 3.1 23:29:36 10° NNE 23:35:25 86° ESE 23:35:47 79° S
ACS3 Solar Sail 2.8 23:31:22 10° NNE 23:36:39 32° E 23:37:20 31° ESE
Meteor 2-20 Rocket 4.1 23:37:28 74° SE 23:37:45 76° E 23:43:27 10° NNE
BlueWalker 3 4.4 23:41:17 14° ENE 23:41:17 14° ENE 23:41:55 10° ENE
Cosmos 2297 Rocket 2.1 23:43:29 71° WSW 23:43:54 75° WNW 23:49:34 10° NNE
Meteor 2-20 4.5 23:46:32 60° WSW 23:47:17 65° W 23:53:22 10° N
Cosmos 1842 Rocket 4.2 23:53:33 50° NE 23:53:33 50° NE 23:57:06 10° NNE
Landsat 5 4.4 23:48:47 10° NNE 23:51:40 42° NE 23:51:40 42° NE
